TimeAKDT,TemperatureF,Dew PointF,Humidity,Sea Level PressureIn,VisibilityMPH,Wind Direction,Wind SpeedMPH,Gust SpeedMPH,PrecipitationIn,Events,Conditions,WindDirDegrees,DateUTC
12:53 AM,46.9,42.1,83,30.10,10.0,East,10.4,-,N/A,,Clear,80,2013-07-15 08:53:00
1:53 AM,44.1,41.0,89,30.12,10.0,East,11.5,-,N/A,,Unknown,90,2013-07-15 09:53:00
2:53 AM,43.0,39.9,89,30.12,10.0,East,9.2,-,N/A,,Clear,80,2013-07-15 10:53:00
3:53 AM,42.1,39.9,92,30.13,10.0,East,8.1,-,N/A,,Clear,80,2013-07-15 11:53:00
4:53 AM,43.0,39.9,89,30.12,10.0,East,11.5,-,N/A,,Clear,90,2013-07-15 12:53:00
5:53 AM,43.0,39.9,89,30.11,10.0,East,13.8,-,N/A,,Clear,80,2013-07-15 13:53:00
6:53 AM,45.0,41.0,86,30.10,10.0,East,15.0,-,N/A,,Clear,90,2013-07-15 14:53:00
7:53 AM,46.9,41.0,80,30.10,10.0,East,11.5,-,N/A,,Clear,90,2013-07-15 15:53:00
8:53 AM,48.9,42.1,77,30.09,10.0,East,12.7,-,N/A,,Clear,80,2013-07-15 16:53:00
9:53 AM,52.0,43.0,71,30.09,10.0,East,9.2,-,N/A,,Clear,80,2013-07-15 17:53:00
10:53 AM,55.9,45.0,67,30.09,10.0,ESE,10.4,-,N/A,,Clear,110,2013-07-15 18:53:00
11:53 AM,57.0,45.0,64,30.07,10.0,ENE,12.7,-,N/A,,Partly Cloudy,70,2013-07-15 19:53:00
12:53 PM,57.9,46.0,65,30.06,10.0,ENE,11.5,-,0.00,,Mostly Cloudy,70,2013-07-15 20:53:00
1:53 PM,59.0,46.0,62,30.06,10.0,ENE,12.7,-,0.00,,Unknown,70,2013-07-15 21:53:00
2:53 PM,59.0,46.9,64,30.05,10.0,East,10.4,-,N/A,,Overcast,80,2013-07-15 22:53:00
3:53 PM,61.0,48.0,62,30.05,10.0,East,11.5,-,N/A,,Mostly Cloudy,80,2013-07-15 23:53:00
4:53 PM,62.1,48.0,60,30.04,10.0,ENE,9.2,-,N/A,,Clear,60,2013-07-16 00:53:00
5:53 PM,61.0,48.9,64,30.04,10.0,NE,8.1,-,0.00,,Scattered Clouds,40,2013-07-16 01:53:00
6:53 PM,59.0,48.9,69,30.05,-9999.0,ENE,8.1,-,N/A,,Unknown,60,2013-07-16 02:53:00
7:53 PM,57.9,48.9,72,30.05,10.0,ENE,8.1,-,N/A,,Mostly Cloudy,70,2013-07-16 03:53:00
8:53 PM,55.9,48.0,75,30.04,10.0,ENE,8.1,-,N/A,,Overcast,70,2013-07-16 04:53:00
9:53 PM,55.0,48.0,77,30.05,10.0,ENE,8.1,-,0.00,,Overcast,70,2013-07-16 05:53:00
10:53 PM,53.1,46.9,80,30.05,10.0,East,6.9,-,0.00,,Mostly Cloudy,80,2013-07-16 06:53:00
11:53 PM,52.0,46.9,83,30.06,10.0,ENE,3.5,-,0.00,,Overcast,70,2013-07-16 07:53:00